Location: Conflandey
(47.7287°N, 6.0456°E)
Time: 19:56:07
(UTC+00:00)

Cosmos 1908 - Pass Details

Date: 24 October 2021
Orbit: 509 x 528 km, 82.5° (Epoch: 05 December)

Event Time Altitude Azimuth Distance (km) Brightness Sun altitude
Rises 17:23:59 0° 200° (SSW) 2,648 7.2 -9.5°
Reaches altitude 10° 17:26:09 10° 205° (SSW) 1,761 6.4 -9.9°
Maximum altitude 17:29:56 52° 282° (WNW) 658 4.2 -10.5°
Drops below altitude 10° 17:33:43 10° 0° (N) 1,765 5.8 -11.2°
Sets 17:35:55 0° 6° (N) 2,655 6.7 -11.5°
